ARIANE 2 DEB, 27036

Orbit data source: Space-Track

ARIANE 2 DEB, 27036 is space debris in HEO originally from a launch on Fri, 27 Jan 1989 UTC launched from the French Guiana (FRGUI). Debris objects in space refer to the collection of defunct objects orbiting the Earth. Examples of debris include non-operational satellites, rocket bodies, and fragments generated from explosions, collisions, or faulty payload assembly.

Loading next visibility...
Identifier
27036, 1989-006R
Orbit
HEO
Country
Flag of FRFR
Related business
Manufacturer
EADS/LV
Mission
Spacecraft
Bus & Motor
Unknown
Mass
Unknown
Launch date (UTC)
1989-01-27 (37 years ago)
Launch vehicle
Unknown
Launch site
French Guiana (FRGUI)
Object type
Payload
Rocket body
Debris
Shape & HBR
Unknown shape, 0.2 m
Radar Cross Section
Medium (>0.1 m² and <1 m²)

Expand to show TLE details & history
Last TLE update: 10 months ago

TLE from 10 months ago
0 ARIANE 2 DEB
1 27036U 89006R   25126.59177800 -.00000215  00000-0  97618-3 0  9997
2 27036   9.1887   5.3472 7148138 217.1432  12.5034  2.25737870 16841
Epoch: 2025-05-06T14:12Z
TLE epoch observation values (Epoch: 2025-05-06T14:12:09.619Z)
Latitude
-8.21041°
Longitude
-135.32732°
Altitude
4,226.299 km
Speed
7.677 km/s
True Right ascension
20h 09m 36s
True Declination
-8° 10' 40"
Sunlit
Object was in daylight at epoch
Visualization orbit readout
Latitude
Unknown
Longitude
Unknown
Altitude
Unknown
Speed
Unknown
Apparent Right ascension
Unknown
Apparent Declination
Unknown
Sunlit
N/A
Visualization observer readout
Local Sidereal Time
15:44:48
Azimuth
Unknown
Elevation
Unknown
Doppler factor
Unknown
Orbital elements
Apogee altitude
35,724.122 km
Perigee altitude
623.78 km
Semi-major axis
24,552.088 km
Eccentricity
0.71481
Inclination
9.1887°
RAAN
5.3472°
Arg. of periapsis
217.1432°
True anomaly
79.30664°
Mean anomaly
12.5034°
Eccentric anomaly
37.35132°
Mean motion
0.56417 °/min
Orbital period
638.1 mins
BSTAR
0.00097618
Loading maneuver chart data...
Computing Atmospheric mass density...
Loading historical data...
Loading historical data...
Loading historical data...
Loading historical data...
Loading historical data...
Loading historical data...
Loading historical data...

Documentation

Showing up to 5 results
|